GPS BIIR-14M

Last updated on Thu Apr 09 2026 00:02:35 GMT+0000 (Coordinated Universal Time)

1 28874U 05038A 26098.56412307 .00000005 00000+0 00000+0 0 9991 2 28874 54.9363 275.9854 0128019 295.7307 73.2623 2.00570652150449
UTC large
Height (km)
Speed (km/s)
/
Latitude / Longitude
Inclination (degrees)
Orbital Period (minutes)
Azimuth
Elevation
Range (km)
Doppler Factor

Next 0 passes for location: London (51.5072 / 0.1276)

Sorry there are no passes over London.